GEFSNE_500_meanwind_348.txt.gz
Wind_Speed
16 15 15 14 15 15 15 15 15 15 15 15 15 14 14 14 14 13 13 12 12 12 11 11 10 10 10 10 10 10 9 9 10 11 11 12 12 12
17 17 16 16 16 15 15 16 16 16 16 16 16 16 15 15 15 15 14 14 13 13 12 11 11 11 11 10 10 10 10 10 10 10 11 12 12 13
19 19 19 18 17 17 16 16 16 16 17 17 17 17 17 17 16 16 15 15 14 13 13 12 12 12 11 11 11 11 11 11 11 11 11 12 13 13
21 21 20 19 19 18 18 18 17 17 18 18 18 18 18 18 17 17 17 15 15 15 14 14 14 13 13 12 12 12 12 12 12 12 12 12 13 13
22 21 21 20 20 19 19 19 19 18 18 18 19 19 19 19 19 18 18 17 16 16 15 15 15 14 14 13 13 13 12 13 13 13 14 14 13 13
22 21 21 21 21 21 21 20 19 19 20 19 20 20 20 20 19 18 18 17 17 17 17 16 17 16 15 15 15 14 14 14 13 14 14 15 15 15
23 22 22 22 22 22 21 21 20 20 20 20 20 20 20 19 19 19 18 18 18 18 18 18 17 17 16 16 16 16 16 16 15 15 15 15 15 16
24 24 23 23 23 23 22 22 22 21 20 20 20 20 20 20 20 20 20 20 20 19 19 18 18 18 17 17 17 17 17 18 18 18 17 17 17 17
23 23 23 23 24 24 24 24 23 22 22 21 21 21 21 21 21 21 21 21 20 20 20 20 19 19 18 18 18 19 18 19 20 20 20 19 19 19
24 24 24 24 24 24 25 25 24 24 24 24 23 23 22 22 22 22 21 21 21 22 22 21 21 20 20 20 20 20 20 20 20 20 20 21 20 20
25 24 24 25 25 25 26 26 26 26 26 26 25 25 24 24 23 23 23 23 23 23 23 22 22 22 22 22 22 22 22 21 21 21 22 22 22 22
26 26 25 25 25 26 27 27 27 27 27 27 27 26 26 25 25 25 25 25 25 25 24 24 23 23 23 23 24 24 24 23 22 22 22 23 23 22
27 27 26 25 25 25 26 26 26 26 27 27 27 27 27 27 27 26 26 26 26 26 26 26 25 25 25 25 25 25 25 24 24 24 23 23 24 24
28 28 27 26 26 26 26 25 26 26 27 27 26 26 27 28 27 27 27 27 26 26 26 26 27 26 26 25 26 25 26 25 25 25 25 25 25 24
28 28 28 27 27 26 26 26 26 27 27 27 27 27 27 28 28 28 28 27 27 26 26 26 26 27 26 26 26 27 26 26 26 25 25 26 26 25
29 29 29 28 27 27 27 27 27 27 27 28 27 27 27 28 28 29 29 29 29 28 28 28 28 28 28 27 26 26 26 26 26 26 26 26 27 26
29 30 29 29 29 28 28 27 27 27 28 28 28 28 29 29 30 30 30 30 30 30 29 29 28 28 28 27 27 27 26 26 27 27 27 27 26 26
30 29 29 30 30 30 29 29 28 28 28 29 29 30 31 31 31 31 31 31 31 31 31 30 30 30 30 30 30 29 28 28 28 28 28 27 27 26
31 31 31 31 31 31 30 30 30 29 30 30 31 31 32 32 32 32 32 32 32 31 32 32 32 32 32 32 32 31 30 29 29 29 28 27 27 27
32 32 32 32 32 32 31 31 31 31 31 31 32 33 32 32 32 33 32 33 33 33 33 33 33 33 33 33 33 32 31 31 30 30 29 28 28 27
31 32 32 32 32 32 32 32 32 32 32 32 32 32 33 33 33 33 33 33 33 33 33 34 34 34 33 33 33 32 32 32 32 32 31 31 30 30
31 31 31 31 32 32 32 33 33 33 33 33 33 33 32 32 33 33 33 33 34 34 34 34 34 33 33 33 32 32 33 33 32 32 32 32 32 32
31 31 32 32 32 33 33 34 34 34 34 33 33 33 32 32 32 32 33 33 33 34 34 33 33 33 33 33 33 33 33 33 34 33 33 33 33 33

GEFSNE_500_meanwind_354.txt.gz
Wind_Speed
17 17 17 17 17 17 17 16 16 15 15 15 16 15 15 15 14 14 13 13 12 12 11 11 11 11 11 11 11 11 11 11 11 11 11 11 11 11
18 18 18 18 18 18 17 17 17 17 16 17 17 17 16 15 14 14 13 13 13 13 13 12 12 12 12 12 12 13 12 12 13 13 13 13 12 12
20 19 20 20 20 19 18 18 18 18 18 18 18 17 17 17 16 15 15 14 14 14 14 13 13 13 13 13 13 13 13 13 13 13 14 14 14 13
21 21 20 20 20 19 19 19 19 19 19 19 19 18 18 18 17 17 16 17 16 15 15 14 14 13 13 14 14 13 13 13 13 13 13 13 14 14
22 22 21 21 21 20 20 20 20 20 20 20 20 20 19 19 18 18 18 17 16 15 15 15 14 14 14 14 13 13 13 13 12 12 12 13 13 14
23 23 22 22 21 21 21 21 21 21 21 21 21 21 20 20 19 18 18 17 16 16 16 16 15 15 15 14 13 13 13 13 13 13 13 13 14 15
24 24 23 23 22 22 22 22 22 22 22 21 20 20 20 19 19 18 17 17 17 17 17 17 16 16 16 15 14 14 14 14 13 14 14 14 15 16
25 25 25 24 24 24 24 23 24 23 23 22 21 21 20 19 19 19 18 18 18 18 18 18 17 17 16 16 16 15 15 15 15 15 15 16 16 17
27 26 26 26 26 25 25 25 25 24 23 23 22 21 21 20 19 20 20 19 19 19 18 18 19 18 18 18 18 17 17 16 16 16 16 17 17 17
27 28 27 27 27 27 26 26 26 25 24 23 23 22 22 21 21 22 22 21 21 20 20 19 19 19 19 20 19 18 17 17 17 17 17 18 18 18
29 29 29 29 28 27 28 27 25 25 24 24 24 24 23 23 23 23 23 23 22 21 21 21 20 20 20 20 19 19 19 18 18 18 18 18 18 18
29 30 29 29 28 28 27 26 25 24 25 25 25 25 24 24 24 24 24 24 23 23 22 22 21 21 20 20 21 20 20 20 20 20 19 19 19 19
28 27 28 27 27 26 26 26 25 25 25 25 25 25 25 25 24 24 24 24 24 24 23 23 23 23 22 22 22 21 21 21 21 21 20 20 20 20
28 28 28 28 27 27 26 26 25 25 25 25 25 25 25 25 25 25 25 25 24 24 25 25 24 24 24 23 23 23 22 22 22 22 21 21 21 21
27 27 27 28 28 28 27 27 27 26 26 25 25 25 25 26 26 25 25 25 25 25 26 26 26 26 25 24 24 24 24 23 23 23 22 22 21 21
26 27 27 27 28 28 28 28 28 27 27 26 26 26 26 26 26 26 26 25 25 25 26 27 27 27 27 27 26 25 25 25 25 24 23 23 22 22
26 26 26 27 28 29 29 29 29 28 28 27 27 27 27 27 27 27 28 28 27 27 27 28 28 28 28 28 27 26 25 25 25 25 25 24 24 24
28 27 27 27 28 28 29 30 30 29 28 28 28 28 28 28 28 28 28 28 28 28 28 29 28 28 28 28 27 27 26 26 26 26 25 25 25 25
30 30 29 29 29 29 29 30 30 30 30 29 29 29 29 29 29 29 29 29 29 29 29 29 29 29 29 28 28 28 28 27 27 26 26 26 26 26
31 31 31 31 30 31 31 31 31 30 30 30 30 29 29 29 29 29 29 29 29 29 29 29 29 29 29 29 29 29 29 28 28 28 28 28 28 27
32 32 32 32 32 32 32 32 32 31 30 30 30 30 30 30 30 30 30 30 29 29 29 29 29 29 29 30 30 30 30 29 29 29 29 29 29 29
31 32 32 33 33 33 32 32 32 32 31 31 31 31 31 31 31 32 31 30 30 30 29 29 29 29 30 30 30 30 31 30 30 30 30 30 30 30
30 31 32 33 33 33 33 32 32 32 33 33 33 32 32 32 32 32 32 31 31 30 30 30 30 30 30 31 31 31 31 31 31 31 30 31 31 32

GEFSNE_500_meanwind_360.txt.gz
Wind_Speed
14 14 15 15 15 14 14 15 15 15 15 15 15 15 14 14 14 14 14 14 14 13 13 12 12 12 12 12 12 11 10 10 11 10 10 10 10 10
15 15 15 15 15 15 15 15 15 16 16 15 16 15 15 15 15 15 15 15 14 14 13 13 13 12 12 12 12 11 11 11 11 11 11 11 12 12
16 16 16 16 16 16 16 16 16 15 15 16 16 16 17 17 17 16 15 15 15 14 14 14 14 13 12 12 12 12 12 12 12 13 13 13 13 13
18 18 18 18 17 17 17 17 17 16 16 16 17 17 18 18 17 17 16 16 16 15 16 15 14 14 14 13 13 13 13 13 14 14 15 15 14 15
20 20 20 19 19 18 18 17 17 17 17 17 17 17 18 18 18 17 17 17 16 16 17 16 16 15 15 15 15 15 15 15 16 16 16 16 16 16
22 22 21 20 20 20 19 19 18 18 17 18 18 18 19 19 19 18 18 18 17 17 18 17 17 17 17 17 16 16 17 17 17 17 18 18 17 17
24 23 23 22 22 21 21 20 20 19 19 18 19 19 19 19 19 19 20 20 20 19 19 19 19 19 19 19 18 19 19 19 19 18 19 18 18 18
25 25 25 24 23 22 22 22 21 21 21 20 20 20 20 20 20 21 21 21 21 21 21 20 20 20 20 20 19 19 20 20 20 19 19 18 18 18
26 26 26 25 25 24 24 23 23 23 23 23 22 22 22 22 22 22 22 22 22 22 22 22 22 21 21 21 21 21 21 21 20 19 19 19 18 18
26 26 26 26 26 25 25 25 24 24 23 23 23 24 24 23 23 23 23 23 23 23 23 23 23 22 22 22 22 21 21 21 20 20 19 19 18 18
28 27 27 26 26 26 26 26 25 25 25 24 24 24 24 24 24 24 24 24 23 24 23 23 23 24 23 22 22 22 21 21 20 20 20 19 19 19
28 28 28 27 27 27 26 26 26 26 26 25 25 24 24 25 25 24 25 24 24 23 24 23 24 24 24 23 23 22 21 20 20 21 21 21 20 21
27 28 28 28 27 27 27 27 27 26 25 25 25 25 25 24 24 24 24 24 24 24 25 24 24 24 24 23 23 23 22 22 21 21 22 22 22 22
26 27 27 27 27 28 28 28 28 27 26 25 24 24 24 24 23 23 24 24 25 25 26 25 25 25 25 24 24 24 24 23 23 23 23 23 23 23
26 26 26 26 27 26 27 27 27 27 26 25 24 24 25 24 24 24 25 25 25 25 26 26 26 25 25 25 25 25 25 25 25 24 24 24 24 24
26 25 25 25 25 25 25 26 26 26 25 25 25 25 25 25 25 25 25 25 25 26 26 26 26 26 26 25 26 26 27 27 26 26 26 25 25 25
26 26 26 26 26 26 26 26 26 26 26 26 27 27 27 27 27 27 27 27 27 27 27 27 26 26 26 26 25 25 27 28 28 28 27 26 26 26
26 25 26 26 26 27 27 28 28 28 29 29 29 29 29 29 29 29 29 28 28 28 28 28 28 27 26 26 26 27 27 27 28 28 29 28 27 27
26 26 26 26 27 27 27 27 27 28 29 29 29 29 29 29 29 29 29 28 28 28 28 29 29 29 29 28 27 27 28 27 28 29 29 29 28 28
27 27 27 27 27 27 28 27 27 28 29 29 29 29 30 31 31 31 30 29 29 29 29 29 29 30 30 29 28 28 29 28 29 29 29 28 29 30
28 28 28 29 29 29 29 29 29 29 30 30 30 31 31 32 31 31 31 31 30 30 30 30 30 30 30 30 30 29 29 29 29 29 29 29 29 30
27 27 28 29 29 30 31 31 30 30 30 31 31 31 32 32 32 32 32 32 31 31 31 30 31 31 31 31 30 30 30 31 31 31 30 30 31 31
27 27 28 29 30 30 30 30 31 31 31 31 31 31 31 32 32 32 32 32 33 33 32 32 31 32 32 32 32 32 32 32 32 32 32 32 32 32

GEFSNE_500_meanwind_366.txt.gz
Wind_Speed
16 16 16 16 17 17 17 17 16 16 16 15 15 15 16 16 15 15 15 15 15 15 15 15 15 15 15 14 14 13 14 14 13 12 11 11 11 12
18 18 18 18 18 18 17 17 16 16 17 17 17 16 16 16 16 15 15 16 16 16 16 16 16 16 16 15 15 14 14 15 14 12 12 12 12 13
19 20 20 20 20 20 19 18 18 18 18 18 18 18 17 17 16 16 16 16 16 16 16 16 16 16 17 16 16 15 15 14 14 14 14 14 14 14
21 22 22 22 22 22 21 20 19 19 20 19 19 18 18 18 17 17 17 17 17 17 16 16 16 16 16 16 16 16 16 14 14 14 15 15 15 14
23 23 23 23 23 23 22 22 21 20 20 20 20 19 19 19 19 18 18 18 18 18 17 17 17 17 16 16 16 16 16 16 16 16 16 16 16 16
25 25 24 24 23 24 24 23 22 22 22 22 21 21 20 20 20 19 18 19 19 19 19 19 18 18 18 18 17 17 17 17 17 17 17 17 17 17
26 26 25 25 24 24 24 23 23 23 23 23 23 23 22 21 21 20 20 20 21 20 20 20 20 20 19 19 18 19 19 19 19 19 18 18 18 17
26 26 26 25 24 25 25 25 26 25 25 25 24 24 23 23 22 22 22 22 22 21 21 22 22 21 21 21 21 21 21 21 21 20 20 19 18 18
27 27 26 27 27 27 27 27 26 27 26 26 25 26 25 24 24 23 23 23 23 23 23 23 23 23 22 22 23 23 23 23 22 22 21 20 20 19
28 28 27 27 28 29 28 28 27 26 26 27 26 26 26 26 26 25 25 25 25 25 25 25 25 25 24 24 23 24 24 24 24 23 23 22 22 22
28 28 28 28 28 28 29 29 28 27 27 27 27 27 27 27 27 27 26 26 26 26 26 26 26 26 26 25 25 25 25 25 25 25 24 24 23 23
28 28 28 29 29 29 29 29 29 29 29 29 29 28 27 27 27 27 26 26 26 26 26 27 27 27 27 27 27 27 27 27 26 26 26 26 25 25
29 29 29 29 29 29 29 29 29 29 29 28 28 27 27 27 28 28 27 26 26 26 27 27 27 27 27 28 28 29 28 28 28 28 27 27 27 27
28 28 28 29 29 29 28 29 29 29 29 29 29 28 28 28 28 28 27 27 26 26 26 27 27 27 27 28 28 29 29 30 30 30 29 29 29 28
28 27 27 27 28 28 28 28 28 29 29 29 29 29 28 28 28 27 27 27 27 27 27 27 27 27 27 27 28 28 29 29 30 30 30 29 29 29
27 27 27 27 27 27 27 28 28 28 29 29 29 29 30 29 29 29 28 28 28 28 28 28 28 28 28 28 27 27 28 29 29 29 29 29 30 30
27 27 27 27 27 27 27 28 29 29 30 29 29 30 30 30 30 30 29 29 29 30 30 29 29 29 29 29 29 28 28 28 29 29 29 29 29 29
27 27 27 27 27 27 27 28 29 30 30 30 29 29 29 29 30 30 30 30 30 31 31 31 31 30 30 30 30 30 29 28 28 28 28 28 28 28
28 27 27 27 26 26 27 27 27 28 29 29 29 30 31 31 32 32 32 32 31 31 31 32 32 31 30 30 30 30 30 29 29 29 29 29 28 28
28 27 27 27 27 27 26 27 27 27 28 29 30 30 31 31 32 32 32 32 32 32 32 32 32 32 31 30 30 31 31 30 30 30 30 30 29 29
28 27 27 28 28 28 28 28 28 28 29 29 30 30 31 32 32 32 33 33 33 33 33 32 32 32 31 31 31 31 31 31 31 31 31 31 30 30
28 28 28 29 29 29 29 29 29 30 30 30 31 32 32 33 33 34 34 33 33 33 33 32 32 32 32 31 31 31 31 31 32 32 32 31 32 31
29 29 28 29 30 30 30 30 31 31 31 31 32 33 33 33 33 33 33 34 34 33 34 33 33 33 33 32 31 31 31 32 32 32 33 33 33 32